Погода в Наджране

Саудовская Аравия     17°29′09″N   44°07′46″E
темп.,
°C
ветер,
м/с
пор.,
м/с
влажн.,
%
обл.,
%
осадки,
мм/ч
давл.,
гПа
погр.,
м
12 апреля, пн
пн1200:00+24зюз224178 0.0 101118
03:00+22зюз33545 0.0 101121
06:00+20зюз22611 0.0 101312
09:00+27св44280 0.0 10131156
12:00+31вюв34150 0.0 10112776
15:00+33всв551226 0.0 10073640
18:00+28зсз3429100 0.0 1009274
21:00+25з11339 0.0 101217
13 апреля, вт
вт1300:00+24юз353698 0.0 1012225
03:00+22ссв01439 0.0 101112
06:00+21зюз33525 0.0 101317
09:00+28юз23325 0.0 1013962
12:00+33вюв231433 0.0 10093805
15:00+35в6511100 0.0 10064262
18:00+32ю2517100 0.0 1007758
21:00+27зсз233499 0.0 101150
14 апреля, ср
ср1400:00+25юз2241100 0.0 101118
03:00+24сз2243100 0.0 101014
06:00+22сз22327 0.0 101211
09:00+28с33186 0.0 10121131
12:00+32всв44151 0.0 10102689
15:00+34всв661331 0.0 10053358
18:00+28юз5531100 0.0 1008434
21:00+24з343697 0.0 1012188
15 апреля, чт
чт1500:00+24ююв123373 0.0 101170
03:00+22ссв004053 0.0 101111
06:00+21юв11435 0.0 101311
09:00+27всв34275 0.0 10131291
12:00+31в53160 0.0 10102889
15:00+33в65135 0.0 10063783
18:00+31вюв551437 0.0 10072896
21:00+25з6832100 0.0 1011218
16 апреля, пт
пт1600:00+26з112665 0.1 101129
03:00+22всв123923 0.1 101155
06:00+20ссз22476 0.0 101411
09:00+25св333099 0.0 10141051
12:00+29в222088 0.0 10111667
15:00+32всв561648 0.0 10083480
18:00+30вюв881898 0.0 10081998
21:00+23ссз454114 0.1 1013233